SCOUT A R/B, 2755

Orbit data source: Space-Track

SCOUT A R/B, 2755 is space debris in LEO originally from a launch on Fri, 14 Apr 1967 UTC launched from the Air Force Western Test Range (AFWTR). Debris objects in space refer to the collection of defunct objects orbiting the Earth. Examples of debris include non-operational satellites, rocket bodies, and fragments generated from explosions, collisions, or faulty payload assembly.

Loading next visibility...
Identifier
2755, 1967-034B
Orbit
LEO
Country
Flag of USUS
Related business
Manufacturer
ABL
Mission
Spacecraft
Bus & Motor
ALTAIR, Unknown motor
Mass
33 kg wet, 33 kg dry
Launch date (UTC)
1967-04-14 (59 years ago)
Launch vehicle
Unknown
Launch site
Air Force Western Test Range (AFWTR)
Object type
Payload
Rocket body
Debris
Shape & HBR
Unknown
Radar Cross Section
Medium (>0.1 m² and <1 m²)

Expand to show TLE details & history
Last TLE update: 7 hours ago

TLE from 7 hours ago
0 SCOUT A R/B
1  2755U 67034B   26035.06033884  .00000112  00000-0  15201-3 0  9993
2  2755  90.2629  52.4776 0026212  24.0818  30.8021 13.54013495904020
Epoch: 2026-02-04T01:26Z
TLE epoch observation values (Epoch: 2026-02-04T01:26:53.275Z)
Latitude
55.13152°
Longitude
-103.85208°
Altitude
1,050.008 km
Speed
7.34 km/s
True Right ascension
03h 28m 24s
True Declination
54° 58' 35"
Sunlit
Object was in daylight at epoch
Visualization orbit readout
Latitude
Unknown
Longitude
Unknown
Altitude
Unknown
Speed
Unknown
Apparent Right ascension
Unknown
Apparent Declination
Unknown
Sunlit
N/A
Visualization observer readout
Local Sidereal Time
10:07:08
Azimuth
Unknown
Elevation
Unknown
Doppler factor
Unknown
Orbital elements
Apogee altitude
1,074.055 km
Perigee altitude
1,035.09 km
Semi-major axis
7,432.71 km
Eccentricity
0.00262
Inclination
90.2629°
RAAN
52.4776°
Arg. of periapsis
24.0818°
True anomaly
30.95634°
Mean anomaly
30.8021°
Eccentric anomaly
30.87918°
Mean motion
3.38706 °/min
Orbital period
106.29 mins
BSTAR
0.00015201
Loading maneuver chart data...
Computing Atmospheric mass density...
Loading historical data...
Loading historical data...
Loading historical data...
Loading historical data...
Loading historical data...
Loading historical data...
Loading historical data...

Documentation

Showing up to 5 results
|